Selinsgrove, PA

9:12 AM EST on December 08, 2019 (GMT -0500)
Penn Valley

Weather History for KSEG - June, 2019

Change the Weather History Date:

Friday, June 14, 2019

  Actual Average (KIPT) Record (KIPT)
Temperature  
Mean Temperature 63 °F -  
Max Temperature 72 °F 76 °F 97 °F (1988)
Min Temperature 54 °F 55 °F 41 °F (1912)
Degree Days  
Heating Degree Days 2    
Growing Degree Days 13 (Base 50)    
Moisture  
Dew Point 48 °F    
Average Humidity 61    
Maximum Humidity 97    
Minimum Humidity 34    
Precipitation  
Precipitation 0.00 in - - ()
Sea Level Pressure  
Sea Level Pressure 29.94 in    
Wind  
Wind Speed 5 mph (WSW)    
Max Wind Speed 9 mph    
Max Gust Speed 23 mph    
Visibility 10 miles    
Events      
Averages and records for this station are not official NWS values.
T = Trace of Precipitation, MM = Missing Value Source: NWS Daily Summary

Daily Weather History Graph

Daily Weather History Graph

Search for Another Location

Airport or City:

Astronomy

Jun. 14, 2019 Rise Set
Actual Time 5:35 AM EDT 8:40 PM EDT
Civil Twilight 5:01 AM EDT 9:13 PM EDT
Nautical Twilight 4:19 AM EDT 9:56 PM EDT
Astronomical Twilight 3:29 AM EDT 10:46 PM EDT
Moon 5:58 PM EDT (6/14) 3:53 AM EDT (6/14)
Length of Visible Light 16h 11m
Length of Day
15h 04m
Waxing Gibbous, 92% of the Moon is Illuminated
Jun 14
Waxing Gibbous
Jun 17
Full
Jun 25
Last Quarter
Jul 2
New
Jul 9
First Quarter

Hourly Weather History & Observations

Time (EDT) Temp. Dew Point Humidity Pressure Visibility Wind Dir Wind Speed Gust Speed Precip Events Conditions
12:53 AM 54.0 °F 53.1 °F 97% 29.79 in 9.0 mi South 5.8 mph - N/A   Clear
1:53 AM 55.0 °F 53.1 °F 93% 29.78 in 10.0 mi SW 3.5 mph - N/A   Overcast
2:53 AM 55.9 °F 51.1 °F 84% 29.79 in 10.0 mi Variable 4.6 mph - N/A   Overcast
3:53 AM 55.9 °F 51.1 °F 84% 29.80 in 10.0 mi SSW 3.5 mph - N/A   Overcast
4:53 AM 55.9 °F 50.0 °F 80% 29.82 in 10.0 mi Calm Calm - N/A   Overcast
5:53 AM 55.0 °F 50.0 °F 83% 29.84 in 10.0 mi SW 4.6 mph - N/A   Overcast
6:53 AM 57.0 °F 50.0 °F 77% 29.87 in 10.0 mi Variable 4.6 mph - N/A   Scattered Clouds
7:53 AM 57.9 °F 51.1 °F 78% 29.90 in 10.0 mi Variable 3.5 mph - N/A   Overcast
8:53 AM 60.1 °F 48.9 °F 67% 29.93 in 10.0 mi WNW 9.2 mph 20.7 mph N/A   Mostly Cloudy
9:53 AM 63.0 °F 48.9 °F 60% 29.96 in 10.0 mi Variable 6.9 mph 18.4 mph N/A   Scattered Clouds
10:53 AM 64.0 °F 48.0 °F 56% 29.97 in 10.0 mi West 9.2 mph 17.3 mph N/A   Scattered Clouds
11:53 AM 66.0 °F 46.0 °F 48% 29.99 in 10.0 mi West 8.1 mph 19.6 mph N/A   Mostly Cloudy
12:53 PM 68.0 °F 46.0 °F 45% 30.00 in 10.0 mi West 9.2 mph 19.6 mph N/A   Partly Cloudy
1:53 PM 70.0 °F 46.9 °F 44% 29.99 in 10.0 mi Variable 6.9 mph 23.0 mph N/A   Scattered Clouds
2:53 PM 71.1 °F 44.1 °F 38% 29.99 in 10.0 mi West 9.2 mph 20.7 mph N/A   Scattered Clouds
3:53 PM 72.0 °F 44.1 °F 37% 30.01 in 10.0 mi Variable 5.8 mph 21.9 mph N/A   Clear
4:53 PM 72.0 °F 42.1 °F 34% 30.02 in 10.0 mi West 6.9 mph 18.4 mph N/A   Clear
5:53 PM 72.0 °F 42.1 °F 34% 30.02 in 10.0 mi West 8.1 mph 19.6 mph N/A   Clear
6:53 PM 72.0 °F 43.0 °F 35% 30.03 in 10.0 mi North - - N/A   Partly Cloudy
7:53 PM 69.1 °F 43.0 °F 39% 30.04 in 10.0 mi Variable 3.5 mph - N/A   Clear
8:53 PM 62.1 °F 48.0 °F 60% 30.05 in 10.0 mi Calm Calm - N/A   Clear
9:53 PM 57.9 °F 48.9 °F 72% 30.07 in 10.0 mi Calm Calm - N/A   Clear